Location: Spruce Knob
(38.6995°N, 79.5330°W)
Time: 21:11:08
(UTC-04:00)

A-11 Canister half - Pass Details

Date: 01 February 2022
Orbit: 1513 x 1686 km, 47.2° (Epoch: 24 May)

Event Time Altitude Azimuth Distance (km) Brightness Sun altitude
Rises 15:26:35 0° 244° (WSW) 4,830 12.9 21.0°
Reaches altitude 10° 15:29:45 10° 245° (WSW) 3,822 12.7 20.5°
Maximum altitude 15:39:28 79° 332° (NNW) 1,594 9.4 19.1°
Drops below altitude 10° 15:48:52 10° 60° (ENE) 3,704 10.5 17.8°
Sets 15:51:54 0° 62° (ENE) 4,674 10.9 17.3°
